WD9EKA Weather Reports


Display with metric or nautical units.
time (UTC)temp
F
wind
direction
speed
MPH
gust
MPH
rain 1hr
in
rain 24hr
in
rain mn
in
humidity
%
barometer
mb
20260905164433 93 251 0.0 1.0 0.00 0.00 0.00 65 1008.5
20260905163904 93 243 0.0 0.0 0.00 0.00 0.00 65 1008.6
20260905163333 93 210 2.0 3.0 0.00 0.00 0.00 64 1008.9
20260905162824 93 163 0.0 1.0 0.00 0.00 0.00 64 1008.8
20260905162306 93 215 1.0 2.0 0.00 0.00 0.00 64 1008.8
20260905161733 93 142 0.0 0.0 0.00 0.00 0.00 64 1008.9
20260905161224 92 94 0.0 0.0 0.00 0.00 0.00 65 1008.9
20260905160705 92 92 0.0 1.0 0.00 0.00 0.00 65 1008.8
20260905155624 91 87 0.0 1.0 0.00 0.00 0.00 69 1008.9
20260905155105 90 87 2.0 2.0 0.00 0.00 0.00 69 1008.9
20260905154533 90 83 0.0 0.0 0.00 0.00 0.00 71 1008.9
20260905154024 89 176 2.0 3.0 0.00 0.00 0.00 71 1008.8
20260905153504 89 141 3.0 4.0 0.00 0.00 0.00 72 1008.8
20260905152933 90 115 0.0 0.0 0.00 0.00 0.00 72 1008.9
20260905152424 88 148 1.0 2.0 0.00 0.00 0.00 70 1009.0
20260905151904 89 111 0.0 2.0 0.00 0.00 0.00 71 1009.1
20260905151333 88 128 2.0 3.0 0.00 0.00 0.00 72 1009.1
20260905150304 89 144 1.0 3.0 0.00 0.00 0.00 73 1009.1
20260905145744 88 42 2.0 3.0 0.00 0.00 0.00 73 1009.2
20260905145233 88 179 0.0 1.0 0.00 0.00 0.00 74 1009.2
20260905144720 88 222 0.0 0.0 0.00 0.00 0.00 76 1009.0
20260905144201 88 222 0.0 0.0 0.00 0.00 0.00 74 1009.0
20260905143633 90 222 0.0 0.0 0.00 0.00 0.00 72 1008.9
20260905143120 89 222 0.0 0.0 0.00 0.00 0.00 73 1008.6
20260905142600 89 222 0.0 0.0 0.00 0.00 0.00 73 1008.9
20260905142033 89 222 0.0 0.0 0.00 0.00 0.00 72 1008.8
20260905141520 87 222 0.0 0.0 0.00 0.00 0.00 73 1008.8
20260905141000 87 223 0.0 1.0 0.00 0.00 0.00 76 1008.8
20260905140433 87 222 0.0 0.0 0.00 0.00 0.00 78 1008.9
20260905135920 85 223 0.0 0.0 0.00 0.00 0.00 78 1008.8
20260905135401 85 223 0.0 0.0 0.00 0.00 0.00 80 1008.8
20260905134833 85 223 0.0 0.0 0.00 0.00 0.00 78 1008.7
20260905134320 84 223 0.0 0.0 0.00 0.00 0.00 79 1008.8
20260905133233 82 223 0.0 0.0 0.00 0.00 0.00 84 1008.6
20260905132633 81 223 0.0 0.0 0.00 0.00 0.00 90 1008.8
20260905131533 80 223 0.0 0.0 0.00 0.00 0.00 98 1008.9
20260905131016 78 223 0.0 0.0 0.00 0.00 0.00 99 1008.9
20260905130456 78 223 0.0 0.0 0.00 0.00 0.00 99 1008.9
20260905125933 77 223 0.0 0.0 0.00 0.00 0.00 99 1008.7
20260905125333 76 223 0.0 0.0 0.00 0.00 0.00 99 1008.8
20260905124733 75 223 0.0 0.0 0.00 0.00 0.00 99 1008.7
20260905124133 74 223 0.0 0.0 0.00 0.00 0.00 99 1009.0
20260905123533 74 223 0.0 0.0 0.00 0.00 0.00 99 1008.8
20260905123033 73 223 0.0 0.0 0.00 0.00 0.00 99 1009.0
20260905122513 72 223 0.0 0.0 0.00 0.00 0.00 99 1008.7
20260905121952 72 223 0.0 0.0 0.00 0.00 0.00 99 1008.9
20260905121433 72 223 0.0 0.0 0.00 0.00 0.00 99 1008.8
20260905120913 72 223 0.0 0.0 0.00 0.00 0.00 99 1008.8
20260905120333 71 223 0.0 0.0 0.00 0.00 0.00 99 1008.4
20260905115733 71 223 0.0 0.0 0.00 0.00 0.00 99 1008.8
20260905115133 71 223 0.0 0.0 0.00 0.00 0.00 99 1008.6
20260905114533 71 223 0.0 0.0 0.00 0.00 0.00 99 1008.5
20260905113933 71 223 0.0 0.0 0.00 0.00 0.00 99 1008.5
20260905112733 70 223 0.0 0.0 0.00 0.00 0.00 99 1008.6
20260905111624 70 223 0.0 0.0 0.00 0.00 0.00 99 1008.5
20260905110533 71 223 0.0 0.0 0.00 0.00 0.00 99 1008.3
20260905110025 71 223 0.0 0.0 0.00 0.00 0.00 99 1008.1
20260905105505 71 223 0.0 0.0 0.00 0.00 0.00 99 1008.4
20260905104933 71 223 0.0 0.0 0.00 0.00 0.00 99 1008.3
20260905103905 71 223 0.0 0.0 0.00 0.00 0.00 99 1008.4
20260905103333 71 223 0.0 0.0 0.00 0.00 0.00 99 1008.3
20260905102733 71 223 0.0 0.0 0.00 0.00 0.00 99 1008.2
20260905102133 71 223 0.0 0.0 0.00 0.00 0.00 99 1008.3
20260905101533 71 223 0.0 0.0 0.00 0.00 0.00 99 1008.2
20260905101016 71 223 0.0 0.0 0.00 0.00 0.00 99 1008.3
20260905095933 71 223 0.0 0.0 0.00 0.00 0.00 99 1008.3
20260905095417 71 223 0.0 0.0 0.00 0.00 0.00 99 1008.3
20260905094333 71 223 0.0 0.0 0.00 0.00 0.00 99 1008.2
20260905093817 72 223 0.0 0.0 0.00 0.00 0.00 99 1008.2
20260905093257 72 223 0.0 0.0 0.00 0.00 0.00 99 1008.2
20260905092733 72 223 0.0 0.0 0.00 0.00 0.00 99 1007.9
20260905092133 72 223 0.0 0.0 0.00 0.00 0.00 99 1008.0
20260905090933 72 223 0.0 0.0 0.00 0.00 0.00 99 1008.0
20260905090333 72 223 0.0 0.0 0.00 0.00 0.00 99 1008.2
20260905085733 72 223 0.0 0.0 0.00 0.00 0.00 99 1008.0
20260905085133 72 223 0.0 0.0 0.00 0.00 0.00 99 1008.1
20260905084533 72 224 0.0 0.0 0.00 0.00 0.00 99 1008.0
20260905083933 72 223 0.0 0.0 0.00 0.00 0.00 99 1008.0
20260905082733 72 214 0.0 0.0 0.00 0.00 0.00 99 1008.2
20260905082133 72 214 0.0 0.0 0.00 0.00 0.00 99 1007.7
20260905081533 72 214 0.0 0.0 0.00 0.00 0.00 99 1007.8
20260905080933 72 214 0.0 0.0 0.00 0.00 0.00 99 1007.7
20260905080333 72 214 0.0 0.0 0.00 0.00 0.00 99 1008.0
20260905075733 72 214 0.0 0.0 0.00 0.00 0.00 99 1007.9
20260905075133 72 214 0.0 0.0 0.00 0.00 0.00 99 1007.8
20260905074533 72 214 0.0 0.0 0.00 0.00 0.00 99 1007.8
20260905073933 72 214 0.0 0.0 0.00 0.00 0.00 99 1007.9
20260905073333 72 214 0.0 0.0 0.00 0.00 0.00 99 1007.9
20260905072733 72 214 0.0 0.0 0.00 0.00 0.00 99 1008.0
20260905072133 72 214 0.0 0.0 0.00 0.00 0.00 99 1007.8
20260905070933 72 214 0.0 0.0 0.00 0.00 0.00 99 1008.1
20260905070433 72 214 0.0 0.0 0.00 0.00 0.00 99 1008.1
20260905065833 72 214 0.0 0.0 0.00 0.00 0.00 99 1008.1
20260905065233 72 214 0.0 0.0 0.00 0.00 0.00 99 1008.0
20260905064133 73 214 0.0 0.0 0.00 0.00 0.00 99 1008.0
20260905063533 72 214 0.0 0.0 0.00 0.00 0.00 99 1008.2
20260905062933 72 214 0.0 0.0 0.00 0.00 0.00 99 1008.2
20260905062333 72 214 0.0 0.0 0.00 0.00 0.00 99 1008.2
20260905061733 72 214 0.0 0.0 0.00 0.00 0.00 99 1008.3
20260905061133 72 214 0.0 0.0 0.00 0.00 0.00 99 1008.6
20260905060617 72 214 0.0 0.0 0.00 0.00 0.00 99 1008.5
20260905060058 73 214 0.0 0.0 0.00 0.00 0.00 99 1008.3
20260905055534 73 214 0.0 0.0 0.00 0.00 0.00 99 1008.3
20260905055033 73 214 0.0 0.0 0.00 0.00 0.00 99 1008.4
20260905054513 73 214 0.0 0.0 0.00 0.00 0.00 99 1008.4
20260905053953 73 214 0.0 0.0 0.00 0.00 0.00 99 1008.3
20260905052913 74 214 0.0 0.0 0.00 0.00 0.00 99 1008.5
20260905052353 73 214 0.0 0.0 0.00 0.00 0.00 99 1008.5
20260905051833 73 214 0.0 0.0 0.00 0.00 0.00 99 1008.5
20260905051313 73 214 0.0 0.0 0.00 0.00 0.00 99 1008.6
20260905050753 73 214 0.0 0.0 0.00 0.00 0.00 99 1008.6
20260905050233 74 214 0.0 0.0 0.00 0.00 0.00 99 1008.5
20260905045713 74 214 0.0 0.0 0.00 0.00 0.00 99 1008.6
20260905045153 74 214 0.0 0.0 0.00 0.00 0.00 99 1008.6
20260905044633 74 214 0.0 0.0 0.00 0.00 0.00 99 1008.6
20260905044113 74 214 0.0 0.0 0.00 0.00 0.00 99 1008.7
20260905043554 74 214 0.0 0.0 0.00 0.00 0.00 99 1008.6
20260905043033 74 214 0.0 0.0 0.00 0.00 0.00 99 1008.6
20260905042514 74 214 0.0 0.0 0.00 0.00 0.00 99 1008.7
20260905041955 74 214 0.0 0.0 0.00 0.00 0.00 99 1008.8
20260905041433 74 214 0.0 0.0 0.00 0.00 0.00 99 1008.6
20260905040913 74 214 0.0 0.0 0.00 0.00 0.00 99 1008.8
20260905040353 74 214 0.0 0.0 0.00 0.00 0.00 99 1008.6
20260905035833 74 214 0.0 0.0 0.00 0.00 0.00 99 1008.8
20260905035313 74 214 0.0 0.0 0.00 0.00 0.00 99 1008.9
20260905034753 75 214 0.0 0.0 0.00 0.00 0.00 99 1008.7
20260905034233 75 214 0.0 0.0 0.00 0.00 0.00 99 1008.8
20260905033713 75 214 0.0 0.0 0.00 0.00 0.00 99 1008.8
20260905033153 75 214 0.0 0.0 0.00 0.00 0.00 99 1008.9
20260905032633 75 214 0.0 0.0 0.00 0.00 0.00 99 1008.8
20260905032114 75 214 0.0 0.0 0.00 0.00 0.00 99 1008.8
20260905031553 75 214 0.0 0.0 0.00 0.00 0.00 99 1009.0
20260905031034 75 214 0.0 0.0 0.00 0.00 0.00 99 1009.0
20260905030514 75 214 0.0 0.0 0.00 0.00 0.00 99 1009.1
20260905025954 75 214 0.0 0.0 0.00 0.00 0.00 99 1008.8
20260905025433 75 214 0.0 0.0 0.00 0.00 0.00 99 1008.8
20260905024914 75 214 0.0 0.0 0.00 0.00 0.00 99 1008.6
20260905024354 75 214 0.0 0.0 0.00 0.00 0.00 99 1008.6
20260905023834 75 214 0.0 0.0 0.00 0.00 0.00 99 1008.5
20260905023234 76 214 0.0 0.0 0.00 0.00 0.00 99 1008.5
20260905022634 76 214 0.0 0.0 0.00 0.00 0.00 99 1008.3
20260905022034 76 214 0.0 0.0 0.00 0.00 0.00 99 1008.3
20260905021434 77 214 0.0 0.0 0.00 0.00 0.00 99 1008.7
20260905020834 77 214 0.0 0.0 0.00 0.00 0.00 98 1008.4
20260905020234 77 214 0.0 0.0 0.00 0.00 0.00 98 1008.7
20260905015730 77 214 0.0 0.0 0.00 0.00 0.00 98 1008.6
20260905015210 77 214 0.0 0.0 0.00 0.00 0.00 98 1008.6
20260905014650 77 214 0.0 0.0 0.00 0.00 0.00 97 1008.5
20260905014133 77 214 0.0 0.0 0.00 0.00 0.00 97 1008.3
20260905013534 77 214 0.0 0.0 0.00 0.00 0.00 97 1008.3
20260905012934 77 214 0.0 0.0 0.00 0.00 0.00 96 1008.1
20260905012334 77 214 0.0 0.0 0.00 0.00 0.00 96 1008.3
20260905011733 78 214 0.0 0.0 0.00 0.00 0.00 96 1008.0
20260905011134 78 214 0.0 0.0 0.00 0.00 0.00 95 1008.2
20260905010534 79 214 0.0 0.0 0.00 0.00 0.00 95 1008.3
20260905010026 79 214 0.0 0.0 0.00 0.00 0.00 94 1007.9
20260905005506 79 214 0.0 0.0 0.00 0.00 0.00 94 1008.1
20260905004946 79 214 0.0 0.0 0.00 0.00 0.00 93 1007.9
20260905004426 80 214 0.0 0.0 0.00 0.00 0.00 92 1007.9
20260905003906 81 214 0.0 0.0 0.00 0.00 0.00 91 1007.9
20260905003346 81 213 0.0 0.0 0.00 0.00 0.00 90 1008.0
20260905002826 82 213 0.0 0.0 0.00 0.00 0.00 89 1007.7
20260905002306 82 213 0.0 0.0 0.00 0.00 0.00 88 1008.0
20260905001746 84 214 0.0 0.0 0.00 0.00 0.00 86 1007.8
20260905001226 84 213 0.0 0.0 0.00 0.00 0.00 84 1007.7
20260905000706 85 213 0.0 0.0 0.00 0.00 0.00 82 1007.8
20260904235626 88 213 0.0 0.0 0.00 0.00 0.00 75 1007.6
20260904235107 89 213 0.0 0.0 0.00 0.00 0.00 73 1007.8
20260904234546 90 213 0.0 0.0 0.00 0.00 0.00 72 1007.5
20260904234026 91 213 0.0 0.0 0.00 0.00 0.00 71 1007.8
20260904233506 92 213 0.0 0.0 0.00 0.00 0.00 68 1007.5
20260904232946 92 213 0.0 0.0 0.00 0.00 0.00 70 1007.8
20260904232426 93 213 0.0 0.0 0.00 0.00 0.00 68 1007.5
20260904231906 93 213 0.0 0.0 0.00 0.00 0.00 67 1007.7
20260904231346 94 213 0.0 0.0 0.00 0.00 0.00 68 1007.6
20260904230826 92 213 0.0 0.0 0.00 0.00 0.00 69 1007.5
20260904230306 92 213 0.0 0.0 0.00 0.00 0.00 69 1007.8
20260904225746 93 213 0.0 0.0 0.00 0.00 0.00 68 1007.8
20260904225226 93 213 0.0 0.0 0.00 0.00 0.00 67 1007.6
20260904224706 94 213 0.0 0.0 0.00 0.00 0.00 66 1007.6
20260904224146 94 213 0.0 0.0 0.00 0.00 0.00 67 1007.6
20260904223626 95 213 0.0 0.0 0.00 0.00 0.00 65 1007.6
20260904222546 96 213 0.0 1.0 0.00 0.00 0.00 62 1007.6
20260904222026 99 213 0.0 1.0 0.00 0.00 0.00 59 1007.6
20260904221506 98 213 1.0 2.0 0.00 0.00 0.00 53 1007.4
20260904220946 98 213 0.0 1.0 0.00 0.00 0.00 49 1007.8
20260904220426 98 213 1.0 1.0 0.00 0.00 0.00 53 1007.8
20260904215906 98 291 1.0 1.0 0.00 0.00 0.00 52 1008.1
20260904215346 97 292 0.0 1.0 0.00 0.00 0.00 56 1008.1
20260904214826 97 253 0.0 1.0 0.00 0.00 0.00 59 1008.0
20260904214306 97 253 0.0 1.0 0.00 0.00 0.00 60 1007.7
20260904213746 98 253 1.0 1.0 0.00 0.00 0.00 60 1007.9
20260904213226 99 254 2.0 3.0 0.00 0.00 0.00 51 1008.0
20260904212706 98 238 1.0 2.0 0.00 0.00 0.00 50 1008.0
20260904212146 99 240 1.0 2.0 0.00 0.00 0.00 50 1007.9
20260904211626 100 211 2.0 3.0 0.00 0.00 0.00 51 1008.0
20260904211106 99 210 0.0 1.0 0.00 0.00 0.00 48 1008.2
20260904210546 99 210 1.0 1.0 0.00 0.00 0.00 50 1008.4
20260904210026 98 210 1.0 2.0 0.00 0.00 0.00 52 1008.4
20260904205506 99 210 1.0 1.0 0.00 0.00 0.00 53 1008.3
20260904204946 99 219 0.0 1.0 0.00 0.00 0.00 48 1008.6
20260904204426 98 225 1.0 1.0 0.00 0.00 0.00 51 1008.6
20260904203906 97 218 1.0 2.0 0.00 0.00 0.00 50 1008.6
20260904203346 97 279 2.0 3.0 0.00 0.00 0.00 51 1008.7
20260904202833 98 191 2.0 2.0 0.00 0.00 0.00 51 1008.5
20260904201633 97 298 2.0 3.0 0.00 0.00 0.00 51 1008.8
20260904201123 97 266 3.0 5.0 0.00 0.00 0.00 53 1008.7
20260904200602 99 251 3.0 4.0 0.00 0.00 0.00 50 1008.9
20260904200042 98 181 1.0 2.0 0.00 0.00 0.00 49 1008.9
20260904195522 97 260 0.0 1.0 0.00 0.00 0.00 52 1009.0
20260904195003 98 197 1.0 2.0 0.00 0.00 0.00 52 1009.2
20260904194442 99 177 0.0 2.0 0.00 0.00 0.00 51 1009.1
20260904193922 98 194 0.0 0.0 0.00 0.00 0.00 50 1009.7
20260904193402 98 256 0.0 1.0 0.00 0.00 0.00 51 1009.4
20260904192842 97 309 2.0 2.0 0.00 0.00 0.00 52 1009.5
20260904192322 98 199 0.0 1.0 0.00 0.00 0.00 57 1009.8
20260904191802 98 282 0.0 0.0 0.00 0.00 0.00 51 1009.7
20260904191242 97 250 0.0 1.0 0.00 0.00 0.00 52 1009.8
20260904190202 97 264 3.0 4.0 0.00 0.00 0.00 52 1009.8
20260904185642 98 243 2.0 2.0 0.00 0.00 0.00 54 1010.0
20260904185122 97 242 0.0 1.0 0.00 0.00 0.00 55 1010.0
20260904184602 96 327 2.0 2.0 0.00 0.00 0.00 57 1010.2
20260904184042 97 328 2.0 3.0 0.00 0.00 0.00 54 1010.2
20260904183522 96 311 1.0 2.0 0.00 0.00 0.00 54 1010.3
20260904183003 95 250 1.0 2.0 0.00 0.00 0.00 58 1010.4
20260904182442 95 272 3.0 4.0 0.00 0.00 0.00 58 1010.2
20260904181922 96 297 4.0 5.0 0.00 0.00 0.00 54 1010.7
20260904181402 95 250 1.0 2.0 0.00 0.00 0.00 57 1010.5
20260904180842 95 210 1.0 2.0 0.00 0.00 0.00 57 1010.4
20260904180233 96 264 2.0 4.0 0.00 0.00 0.00 59 1010.7
20260904175730 96 315 2.0 4.0 0.00 0.00 0.00 58 1010.8
20260904175210 95 267 2.0 3.0 0.00 0.00 0.00 57 1010.6
20260904174651 95 287 3.0 4.0 0.00 0.00 0.00 58 1010.8
20260904174133 95 227 4.0 5.0 0.00 0.00 0.00 59 1010.6
20260904173533 94 257 1.0 2.0 0.00 0.00 0.00 61 1010.8
20260904172933 94 285 4.0 5.0 0.00 0.00 0.00 57 1010.8
20260904172333 95 245 2.0 3.0 0.00 0.00 0.00 60 1010.8
20260904171733 94 221 1.0 2.0 0.00 0.00 0.00 58 1011.0
20260904171133 94 290 4.0 4.0 0.00 0.00 0.00 59 1011.0
20260904170533 94 257 4.0 5.0 0.00 0.00 0.00 60 1011.0
20260904165933 94 272 2.0 3.0 0.00 0.00 0.00 61 1011.0
20260904165333 93 239 2.0 3.0 0.00 0.00 0.00 62 1011.2